map of KONX home
KONX - Airport
Location
City:  Currituck, North Carolina, United States
Name:Currituck County Regional
ICAO:KONX
FAA LID:ONX

Details
Type:Airport (Airfield)
Use:Public/Civil
Latitude:3624'00"N (36.399944)
Longitude:7600'56"W (-76.015443)
Datum:WGS 1984
Elevation:17 ft (5 m)
Variation:10.91W (WMM2015 magnetic declination)
-0.02 annual change
Runways:1
Longest:5500 × 150 ft (1676 × 45.5 m), paved

Time
Time Zone:UTC-5 (DST-4)
Local Time:

Weather
METAR:KONX 221635Z AUTO 19004KT 10SM BKN028 31/23 A3007 RMK AO2 T03060233

Related Locations
Nearby:
Farthest:MQZ: 11791 mi / 18976 km
Margaret River [Margaret River Airport], WA, AU

Find:

   beyond  
but within

Other Information
Maps:
NOTAMs:
Links:
Sources:

  
flag of United States
flag of North Carolina
  

Sectional Chart

Flight Planning
at skyvector.com

Satellite Image

Google Maps Satellite view

 

Copyright © 2004-2017 Karl L. Swartz. All rights reserved.
The Great Circle Mapper name and logo are trademarks of the Great Circle Mapper.
All other trademarks mentioned herein belong to their respective owners.
Please see credits for attibutions and further copyright information.

  Follow gcmap on Facebook Follow gcmap on Twitter Follow gcmap on Google+ GCmap on LinkedIn

hCard Microformat

Geo Microformat